NI4CE-14 Weather Reports


Display with metric or nautical units.
time (UTC)temp
F
wind
direction
speed
MPH
gust
MPH
rain 1hr
in
rain 24hr
in
rain mn
in
humidity
%
barometer
mb
20260509091807 81 19 0.0 0.0 0.00 0.00 0.00 100 1010.8
20260509091307 81 19 0.0 0.0 0.00 0.00 0.00 100 1010.7
20260509090807 81 19 0.0 0.0 0.00 0.00 0.00 100 1010.8
20260509090307 81 19 0.0 0.0 0.00 0.00 0.00 100 1010.8
20260509085807 81 19 0.0 0.0 0.00 0.00 0.00 100 1010.8
20260509085307 81 19 0.0 0.0 0.00 0.00 0.00 100 1010.8
20260509085041 81 19 0.0 0.0 0.00 0.00 0.00 100 1010.9
20260509084956 81 19 0.0 0.0 0.00 0.00 0.00 100 1010.9
20260509084807 81 19 0.0 0.0 0.00 0.00 0.00 100 1010.9
20260509084307 81 19 0.0 0.0 0.00 0.00 0.00 100 1010.9
20260509083807 81 19 0.0 0.0 0.00 0.00 0.00 100 1010.9
20260509083307 81 19 0.0 0.0 0.00 0.00 0.00 100 1011.0
20260509082807 81 19 0.0 0.0 0.00 0.00 0.00 100 1011.0
20260509082307 81 19 0.0 0.0 0.00 0.00 0.00 100 1011.0
20260509081807 81 19 0.0 0.0 0.00 0.00 0.00 100 1011.0
20260509081307 81 19 0.0 0.0 0.00 0.00 0.00 100 1011.0
20260509080807 81 19 0.0 0.0 0.00 0.00 0.00 100 1011.0
20260509080307 81 19 0.0 0.0 0.00 0.00 0.00 100 1011.0
20260509075807 81 19 0.0 0.0 0.00 0.00 0.00 100 1010.9
20260509075307 81 19 0.0 0.0 0.00 0.00 0.00 100 1010.9
20260509074807 81 19 0.0 0.0 0.00 0.00 0.00 100 1010.9
20260509074307 81 19 0.0 0.0 0.00 0.00 0.00 100 1010.9
20260509073807 82 19 0.0 0.0 0.00 0.00 0.00 100 1011.0
20260509073307 82 19 0.0 0.0 0.00 0.00 0.00 100 1011.1
20260509072807 82 19 0.0 0.0 0.00 0.00 0.00 100 1011.0
20260509072307 82 19 0.0 0.0 0.00 0.00 0.00 100 1011.1
20260509071807 82 19 0.0 0.0 0.00 0.00 0.00 100 1011.2
20260509071307 82 19 0.0 0.0 0.00 0.00 0.00 100 1011.2
20260509070807 82 19 0.0 0.0 0.00 0.00 0.00 100 1011.3
20260509070307 82 19 0.0 0.0 0.00 0.00 0.00 100 1011.4
20260509065807 82 19 0.0 0.0 0.00 0.00 0.00 100 1011.4
20260509065307 82 19 0.0 0.0 0.00 0.00 0.00 100 1011.4
20260509064807 82 19 0.0 0.0 0.00 0.00 0.00 100 1011.5
20260509064307 82 19 0.0 0.0 0.00 0.00 0.00 100 1011.7
20260509063807 83 19 0.0 0.0 0.00 0.00 0.00 100 1011.7
20260509063307 83 19 0.0 0.0 0.00 0.00 0.00 100 1011.7
20260509063125 83 19 0.0 0.0 0.00 0.00 0.00 100 1011.9
20260509062807 83 19 0.0 0.0 0.00 0.00 0.00 100 1011.9
20260509062307 83 19 0.0 0.0 0.00 0.00 0.00 100 1011.9
20260509061807 83 19 0.0 0.0 0.00 0.00 0.00 100 1011.9
20260509061307 83 19 0.0 0.0 0.00 0.00 0.00 100 1012.0
20260509060807 83 19 0.0 0.0 0.00 0.00 0.00 100 1012.2
20260509060307 83 19 0.0 0.0 0.00 0.00 0.00 100 1012.2
20260509060155 83 19 0.0 0.0 0.00 0.00 0.00 100 1012.3
20260509055807 83 19 0.0 0.0 0.00 0.00 0.00 100 1012.3
20260509055307 83 19 0.0 0.0 0.00 0.00 0.00 100 1012.3
20260509054807 83 19 0.0 0.0 0.00 0.00 0.00 100 1012.3
20260509054307 83 19 0.0 0.0 0.00 0.00 0.00 100 1012.3
20260509053807 83 19 0.0 0.0 0.00 0.00 0.00 100 1012.5
20260509053307 83 19 0.0 0.0 0.00 0.00 0.00 100 1012.4
20260509052807 83 19 0.0 0.0 0.00 0.00 0.00 100 1012.6
20260509052307 83 19 0.0 0.0 0.00 0.00 0.00 100 1012.6
20260509051807 83 19 0.0 0.0 0.00 0.00 0.00 100 1012.6
20260509051307 83 19 0.0 0.0 0.00 0.00 0.00 100 1012.7
20260509050807 83 19 0.0 0.0 0.00 0.00 0.00 100 1012.8
20260509050307 84 19 0.0 0.0 0.00 0.00 0.00 100 1012.8
20260509045807 84 19 0.0 0.0 0.00 0.00 0.00 100 1012.9
20260509045307 84 19 0.0 0.0 0.00 0.00 0.00 100 1012.9
20260509044807 84 19 0.0 0.0 0.00 0.00 0.00 100 1013.0
20260509044307 84 19 0.0 0.0 0.00 0.00 0.00 100 1013.0
20260509043807 84 19 0.0 0.0 0.00 0.00 0.00 100 1012.9
20260509043307 84 19 0.0 3.0 0.00 0.00 0.00 100 1013.0
20260509042808 84 66 0.0 2.0 0.00 0.00 0.00 100 1012.9
20260509042307 84 19 1.0 1.0 0.00 0.00 0.00 100 1013.0
20260509041807 84 333 0.0 3.0 0.00 0.00 0.00 100 1013.1
20260509041621 84 343 0.0 0.0 0.00 0.00 0.00 100 1013.0
20260509041307 84 343 0.0 0.0 0.00 0.00 0.00 100 1013.0
20260509040807 84 343 0.0 4.0 0.00 0.00 0.00 100 1013.0
20260509040307 84 357 4.0 4.0 0.00 0.00 0.00 100 1013.0
20260509035807 84 345 0.0 1.0 0.00 0.00 0.00 100 1013.0
20260509035307 84 345 0.0 2.0 0.00 0.00 0.00 100 1013.0
20260509034807 84 336 1.0 2.0 0.00 0.00 0.00 100 1012.9
20260509034720 84 340 0.0 0.0 0.00 0.00 0.00 100 1013.0
20260509034307 84 340 0.0 0.0 0.00 0.00 0.00 100 1013.0
20260509033807 84 340 0.0 0.0 0.00 0.00 0.00 100 1013.0
20260509033307 84 340 0.0 0.0 0.00 0.00 0.00 100 1013.1
20260509032807 84 340 0.0 5.0 0.00 0.00 0.00 100 1013.1
20260509032432 84 326 5.0 6.0 0.00 0.00 0.00 100 1013.1
20260509032307 84 326 5.0 6.0 0.00 0.00 0.00 100 1013.1
20260509031901 84 343 0.0 0.0 0.00 0.00 0.00 100 1013.0
20260509031807 84 343 0.0 0.0 0.00 0.00 0.00 100 1013.0
20260509031316 84 28 0.0 0.0 0.00 0.00 0.00 100 1012.9
20260509031307 84 343 0.0 3.0 0.00 0.00 0.00 100 1013.0
20260509030807 84 25 3.0 3.0 0.00 0.00 0.00 100 1013.0
20260509030316 84 28 0.0 0.0 0.00 0.00 0.00 100 1012.9
20260509030307 84 43 0.0 3.0 0.00 0.00 0.00 100 1013.0
20260509025807 84 28 0.0 0.0 0.00 0.00 0.00 100 1012.9
20260509025307 84 28 0.0 5.0 0.00 0.00 0.00 100 1012.9
20260509024807 84 338 3.0 4.0 0.00 0.00 0.00 100 1012.9
20260509024307 84 7 2.0 5.0 0.00 0.00 0.00 100 1012.9
20260509023807 84 329 2.0 6.0 0.00 0.00 0.00 100 1010.8
20260509023307 84 12 2.0 6.0 0.00 0.00 0.00 100 1010.9
20260509022807 84 19 2.0 8.0 0.00 0.00 0.00 100 1010.8
20260509022307 84 340 5.0 6.0 0.00 0.00 0.00 100 1010.6
20260509021807 84 327 3.0 6.0 0.00 0.00 0.00 100 1010.6
20260509021307 84 330 2.0 10.0 0.00 0.00 0.00 100 1010.8
20260509020807 84 327 2.0 6.0 0.00 0.00 0.00 100 1012.4
20260509020307 84 19 3.0 8.0 0.00 0.00 0.00 100 1012.5
20260509020123 84 319 5.0 7.0 0.00 0.00 0.00 100 1012.5
20260509015807 84 319 5.0 7.0 0.00 0.00 0.00 100 1012.5
20260509015307 84 28 3.0 6.0 0.00 0.00 0.00 100 1012.5
20260509014951 84 351 4.0 6.0 0.00 0.00 0.00 100 1012.4
20260509014807 84 351 4.0 6.0 0.00 0.00 0.00 100 1012.4
20260509014307 85 343 6.0 6.0 0.00 0.00 0.00 100 1012.4
20260509013807 85 354 2.0 7.0 0.00 0.00 0.00 100 1012.3
20260509013307 85 344 3.0 6.0 0.00 0.00 0.00 100 1012.3
20260509012807 85 341 2.0 6.0 0.00 0.00 0.00 100 1012.3
20260509012307 85 47 4.0 8.0 0.00 0.00 0.00 100 1012.3
20260509011807 85 350 0.0 8.0 0.00 0.00 0.00 100 1012.3
20260509011307 85 327 6.0 8.0 0.00 0.00 0.00 100 1012.3
20260509010807 85 9 3.0 7.0 0.00 0.00 0.00 100 1012.3
20260509010307 85 2 3.0 6.0 0.00 0.00 0.00 100 1012.2
20260509005807 85 68 0.0 6.0 0.00 0.00 0.00 100 1010.4
20260509005307 85 11 2.0 8.0 0.00 0.00 0.00 100 1010.4
20260509004807 85 337 4.0 8.0 0.00 0.00 0.00 100 1010.4
20260509004639 85 327 2.0 8.0 0.00 0.00 0.00 100 1010.4
20260509004307 85 327 2.0 8.0 0.00 0.00 0.00 100 1010.4
20260509003807 85 315 3.0 7.0 0.00 0.00 0.00 100 1010.2
20260509003307 85 358 1.0 8.0 0.00 0.00 0.00 100 1010.4
20260509002807 85 347 4.0 8.0 0.00 0.00 0.00 100 1011.6
20260509002307 85 23 4.0 6.0 0.00 0.00 0.00 100 1011.7
20260509001808 86 352 0.0 6.0 0.00 0.00 0.00 100 1011.6
20260509001307 85 357 3.0 6.0 0.00 0.00 0.00 100 1011.5
20260509000949 86 344 3.0 5.0 0.00 0.00 0.00 100 1011.5
20260509000808 86 344 3.0 5.0 0.00 0.00 0.00 100 1011.5
20260509000308 86 21 1.0 6.0 0.00 0.00 0.00 100 1011.4
20260508235808 86 320 6.0 8.0 0.00 0.00 0.00 100 1011.3
20260508235308 86 9 3.0 6.0 0.00 0.00 0.00 100 1011.2
20260508234808 86 358 3.0 8.0 0.00 0.00 0.00 100 1011.2
20260508234450 87 1 3.0 6.0 0.00 0.00 0.00 100 1011.2
20260508234308 87 1 3.0 6.0 0.00 0.00 0.00 100 1011.2
20260508233952 87 312 1.0 7.0 0.00 0.00 0.00 100 1011.1
20260508233808 87 312 1.0 7.0 0.00 0.00 0.00 100 1011.1
20260508233308 87 40 1.0 6.0 0.00 0.00 0.00 100 1011.0
20260508232956 87 2 3.0 8.0 0.00 0.00 0.00 100 1011.0
20260508232808 87 2 3.0 8.0 0.00 0.00 0.00 100 1011.0
20260508232308 87 334 6.0 7.0 0.00 0.00 0.00 100 1011.0
20260508231808 87 312 5.0 7.0 0.00 0.00 0.00 100 1010.9
20260508231308 87 340 2.0 6.0 0.00 0.00 0.00 100 1010.8
20260508230808 88 19 3.0 6.0 0.00 0.00 0.00 100 1010.7
20260508230308 88 53 5.0 7.0 0.00 0.00 0.00 100 1010.8
20260508225808 87 334 3.0 8.0 0.00 0.00 0.00 100 1010.6
20260508225314 89 302 2.0 5.0 0.00 0.00 0.00 100 1010.7
20260508225308 87 326 6.0 8.0 0.00 0.00 0.00 100 1010.7
20260508224808 88 42 3.0 7.0 0.00 0.00 0.00 100 1010.7
20260508224308 88 358 4.0 7.0 0.00 0.00 0.00 100 1010.7
20260508223808 88 341 5.0 8.0 0.00 0.00 0.00 100 1010.7
20260508223308 88 337 8.0 9.0 0.00 0.00 0.00 100 1010.7
20260508222808 88 326 6.0 8.0 0.00 0.00 0.00 100 1010.7
20260508222308 89 302 2.0 5.0 0.00 0.00 0.00 100 1010.7
20260508221808 89 329 0.0 7.0 0.00 0.00 0.00 100 1010.6
20260508221308 90 354 6.0 6.0 0.00 0.00 0.00 100 1010.5
20260508220808 89 350 1.0 5.0 0.00 0.00 0.00 100 1010.5
20260508220308 90 300 2.0 6.0 0.00 0.00 0.00 100 1010.4
20260508215808 90 288 1.0 5.0 0.00 0.00 0.00 100 1010.5
20260508215308 90 184 0.0 5.0 0.00 0.00 0.00 100 1010.4
20260508214808 90 302 3.0 9.0 0.00 0.00 0.00 100 1010.4
20260508214308 90 327 0.0 4.0 0.00 0.00 0.00 100 1010.3
20260508213808 89 274 1.0 5.0 0.00 0.00 0.00 100 1010.3
20260508213308 89 306 3.0 5.0 0.00 0.00 0.00 100 1010.3
20260508212808 89 299 3.0 6.0 0.00 0.00 0.00 100 1010.4
20260508212308 90 257 0.0 6.0 0.00 0.00 0.00 100 1010.3
20260508211808 90 274 2.0 5.0 0.00 0.00 0.00 100 1010.3
20260508211308 90 316 1.0 3.0 0.00 0.00 0.00 100 1010.4
20260508210808 90 278 0.0 5.0 0.00 0.00 0.00 100 1010.5
20260508210308 90 278 1.0 7.0 0.00 0.00 0.00 100 1009.8
20260508205808 90 302 2.0 7.0 0.00 0.00 0.00 100 1010.5
20260508205308 89 299 0.0 7.0 0.00 0.00 0.00 100 1009.7
20260508204808 89 343 6.0 6.0 0.00 0.00 0.00 100 1010.3
20260508204308 89 260 0.0 9.0 0.00 0.00 0.00 100 1010.4
20260508203808 89 324 1.0 9.0 0.00 0.00 0.00 100 1010.5
20260508203308 89 227 1.0 8.0 0.00 0.00 0.00 100 1010.4
20260508202920 89 248 4.0 6.0 0.00 0.00 0.00 100 1010.6
20260508202808 89 248 4.0 6.0 0.00 0.00 0.00 100 1010.6
20260508202308 89 248 0.0 5.0 0.00 0.00 0.00 100 1010.6
20260508201808 89 358 5.0 9.0 0.00 0.00 0.00 100 1010.6
20260508201308 88 5 3.0 9.0 0.00 0.00 0.00 100 1010.7
20260508200808 88 315 5.0 11.0 0.00 0.00 0.00 100 1010.7
20260508200308 89 327 4.0 11.0 0.00 0.00 0.00 100 1010.9
20260508195836 89 320 3.0 11.0 0.00 0.00 0.00 100 1011.1
20260508195808 89 358 4.0 9.0 0.00 0.00 0.00 100 1011.0
20260508195308 89 320 3.0 11.0 0.00 0.00 0.00 100 1011.1
20260508194808 89 310 5.0 10.0 0.00 0.00 0.00 100 1011.0
20260508194308 89 352 5.0 10.0 0.00 0.00 0.00 100 1011.2
20260508193808 89 331 4.0 10.0 0.00 0.00 0.00 100 1011.2
20260508193308 90 33 3.0 9.0 0.00 0.00 0.00 100 1011.2
20260508192808 90 358 3.0 9.0 0.00 0.00 0.00 100 1011.3
20260508192308 90 264 4.0 6.0 0.00 0.00 0.00 100 1011.3
20260508191808 90 316 2.0 6.0 0.00 0.00 0.00 100 1011.3
20260508191308 90 271 2.0 6.0 0.00 0.00 0.00 100 1011.3
20260508190808 90 303 3.0 5.0 0.00 0.00 0.00 100 1011.4
20260508190308 90 268 2.0 7.0 0.00 0.00 0.00 100 1011.6
20260508185808 90 291 5.0 8.0 0.00 0.00 0.00 100 1011.7
20260508185308 91 40 1.0 5.0 0.00 0.00 0.00 100 1011.7
20260508184808 91 323 0.0 6.0 0.00 0.00 0.00 100 1011.9
20260508184308 91 299 4.0 8.0 0.00 0.00 0.00 100 1011.8
20260508183808 90 9 0.0 7.0 0.00 0.00 0.00 100 1011.8
20260508183308 90 323 4.0 6.0 0.00 0.00 0.00 100 1012.0
20260508183105 89 330 4.0 5.0 0.00 0.00 0.00 100 1012.3
20260508182808 89 2 3.0 8.0 0.00 0.00 0.00 100 1012.1
20260508182308 89 274 4.0 5.0 0.00 0.00 0.00 100 1012.2
20260508181808 89 330 4.0 5.0 0.00 0.00 0.00 100 1012.3
20260508181308 88 345 4.0 7.0 0.00 0.00 0.00 100 1012.3
20260508180808 88 315 5.0 7.0 0.00 0.00 0.00 100 1012.4
20260508180308 87 327 6.0 8.0 0.00 0.00 0.00 100 1012.4
20260508175808 88 341 6.0 11.0 0.00 0.00 0.00 100 1012.5
20260508175308 88 330 8.0 10.0 0.00 0.00 0.00 100 1012.6
20260508174808 88 327 8.0 10.0 0.00 0.00 0.00 100 1012.6
20260508174308 88 300 4.0 9.0 0.00 0.00 0.00 100 1012.6
20260508173808 88 351 6.0 10.0 0.00 0.00 0.00 100 1012.7
20260508173308 88 337 7.0 9.0 0.00 0.00 0.00 100 1012.7
20260508172808 88 310 5.0 8.0 0.00 0.00 0.00 100 1012.7
20260508172308 88 331 4.0 8.0 0.00 0.00 0.00 100 1012.9
20260508171808 88 343 3.0 9.0 0.00 0.00 0.00 100 1012.9
20260508171308 87 334 6.0 9.0 0.00 0.00 0.00 100 1013.0
20260508170808 87 337 8.0 12.0 0.00 0.00 0.00 100 1013.1
20260508170308 88 329 1.0 9.0 0.00 0.00 0.00 100 1013.1
20260508165808 88 345 5.0 10.0 0.00 0.00 0.00 100 1013.2
20260508165308 87 324 6.0 9.0 0.00 0.00 0.00 100 1013.3
20260508164808 87 352 3.0 10.0 0.00 0.00 0.00 100 1013.5
20260508164308 87 315 6.0 10.0 0.00 0.00 0.00 100 1013.6
20260508163808 87 343 3.0 11.0 0.00 0.00 0.00 100 1013.7
20260508163308 88 358 3.0 8.0 0.00 0.00 0.00 100 1013.7
20260508162808 88 11 5.0 8.0 0.00 0.00 0.00 100 1013.6
20260508162406 87 2 7.0 9.0 0.00 0.00 0.00 100 1014.7
20260508162308 87 333 5.0 6.0 0.00 0.00 0.00 100 1013.7
20260508161808 87 313 0.0 10.0 0.00 0.00 0.00 100 1013.9
20260508161308 88 279 0.0 10.0 0.00 0.00 0.00 100 1014.0
20260508160808 88 338 7.0 11.0 0.00 0.00 0.00 100 1014.0
20260508160308 88 345 6.0 9.0 0.00 0.00 0.00 100 1014.2
20260508155808 88 354 5.0 7.0 0.00 0.00 0.00 100 1014.3
20260508155308 88 305 4.0 7.0 0.00 0.00 0.00 100 1014.4
20260508154808 87 15 4.0 11.0 0.00 0.00 0.00 100 1014.6
20260508154308 87 2 7.0 9.0 0.00 0.00 0.00 100 1014.7
20260508153808 87 345 3.0 9.0 0.00 0.00 0.00 100 1014.8
20260508153658 87 341 6.0 9.0 0.00 0.00 0.00 100 1014.8
20260508153308 87 341 6.0 9.0 0.00 0.00 0.00 100 1014.8
20260508153035 87 19 5.0 10.0 0.00 0.00 0.00 100 1014.7
20260508152808 87 19 5.0 10.0 0.00 0.00 0.00 100 1014.7
20260508152308 87 334 3.0 9.0 0.00 0.00 0.00 100 1014.7
20260508151808 87 347 5.0 11.0 0.00 0.00 0.00 100 1014.5
20260508151308 87 331 1.0 9.0 0.00 0.00 0.00 100 1014.4
20260508150808 86 21 4.0 10.0 0.00 0.00 0.00 100 1014.4
20260508150308 87 26 5.0 9.0 0.00 0.00 0.00 100 1014.4
20260508145808 87 7 6.0 10.0 0.00 0.00 0.00 100 1014.4
20260508145308 87 322 9.0 9.0 0.00 0.00 0.00 100 1014.3
20260508144808 87 320 6.0 10.0 0.00 0.00 0.00 100 1014.5
20260508144308 87 8 2.0 8.0 0.00 0.00 0.00 100 1014.4
20260508143808 87 345 3.0 7.0 0.00 0.00 0.00 100 1014.4
20260508143308 87 260 1.0 8.0 0.00 0.00 0.00 100 1014.5
20260508142808 86 324 7.0 9.0 0.00 0.00 0.00 100 1014.4
20260508142308 86 329 6.0 11.0 0.00 0.00 0.00 100 1014.3
20260508141808 85 348 9.0 9.0 0.00 0.00 0.00 100 1014.4
20260508141308 86 351 8.0 10.0 0.00 0.00 0.00 100 1014.5
20260508140808 85 358 5.0 10.0 0.00 0.00 0.00 100 1014.4
20260508140308 85 341 7.0 8.0 0.00 0.00 0.00 100 1014.5
20260508135808 85 2 7.0 9.0 0.00 0.00 0.00 100 1014.3
20260508135308 85 352 7.0 10.0 0.00 0.00 0.00 100 1014.3
20260508134808 85 352 3.0 9.0 0.00 0.00 0.00 100 1014.2
20260508134308 85 337 5.0 9.0 0.00 0.00 0.00 100 1014.2
20260508133808 85 295 4.0 7.0 0.00 0.00 0.00 100 1014.3
20260508133308 85 2 5.0 12.0 0.00 0.00 0.00 100 1014.3
20260508132808 85 333 6.0 11.0 0.00 0.00 0.00 100 1014.3
20260508132309 85 336 6.0 7.0 0.00 0.00 0.00 100 1014.2
20260508131808 85 358 4.0 7.0 0.00 0.00 0.00 100 1014.3
20260508131309 85 322 2.0 9.0 0.00 0.00 0.00 100 1014.3
20260508130808 85 12 3.0 9.0 0.00 0.00 0.00 100 1014.3
20260508130308 85 333 3.0 6.0 0.00 0.00 0.00 100 1014.2
20260508125808 85 15 1.0 7.0 0.00 0.00 0.00 100 1014.2
20260508125308 85 319 1.0 7.0 0.00 0.00 0.00 100 1014.2
20260508124808 84 343 5.0 7.0 0.00 0.00 0.00 100 1013.9
20260508124309 84 345 3.0 7.0 0.00 0.00 0.00 100 1014.1
20260508123809 84 305 2.0 7.0 0.00 0.00 0.00 100 1014.1
20260508123309 84 53 1.0 7.0 0.00 0.00 0.00 100 1014.1
20260508122809 84 343 2.0 9.0 0.00 0.00 0.00 100 1014.0
20260508122309 84 2 4.0 6.0 0.00 0.00 0.00 100 1014.0
20260508121809 84 285 2.0 5.0 0.00 0.00 0.00 100 1013.8
20260508121309 84 1 4.0 6.0 0.00 0.00 0.00 100 1013.7
20260508120809 84 326 0.0 6.0 0.00 0.00 0.00 100 1013.7
20260508120309 84 331 3.0 5.0 0.00 0.00 0.00 100 1013.7
20260508115809 84 284 0.0 4.0 0.00 0.00 0.00 100 1013.6
20260508115309 84 19 0.0 6.0 0.00 0.00 0.00 100 1013.5
20260508114809 84 357 0.0 3.0 0.00 0.00 0.00 100 1013.4
20260508114309 84 40 0.0 1.0 0.00 0.00 0.00 100 1013.2
20260508113809 84 299 0.0 4.0 0.00 0.00 0.00 100 1013.1
20260508113309 83 340 2.0 3.0 0.00 0.00 0.00 100 1013.1
20260508112809 83 317 0.0 3.0 0.00 0.00 0.00 100 1013.0
20260508112309 83 284 0.0 4.0 0.00 0.00 0.00 100 1012.9
20260508111809 83 267 0.0 0.0 0.00 0.00 0.00 100 1012.8
20260508111309 83 267 0.0 1.0 0.00 0.00 0.00 100 1012.8
20260508110809 83 267 0.0 5.0 0.00 0.00 0.00 100 1012.7
20260508110309 83 264 3.0 3.0 0.00 0.00 0.00 100 1012.7
20260508105809 83 347 0.0 4.0 0.00 0.00 0.00 100 1012.6
20260508105309 83 358 0.0 0.0 0.00 0.00 0.00 100 1012.6
20260508104809 83 348 0.0 0.0 0.00 0.00 0.00 100 1012.6
20260508104309 83 331 0.0 1.0 0.00 0.00 0.00 100 1012.4
20260508103809 83 313 0.0 0.0 0.00 0.00 0.00 100 1012.4
20260508103309 83 347 0.0 2.0 0.00 0.00 0.00 100 1012.4
20260508102809 83 288 2.0 5.0 0.00 0.00 0.00 100 1012.4
20260508102309 83 350 0.0 5.0 0.00 0.00 0.00 100 1012.4
20260508101809 83 324 0.0 4.0 0.00 0.00 0.00 100 1012.3
20260508101309 83 18 0.0 2.0 0.00 0.00 0.00 100 1012.2
20260508100809 83 7 0.0 4.0 0.00 0.00 0.00 100 1012.1
20260508100309 83 337 0.0 1.0 0.00 0.00 0.00 100 1012.1
20260508095809 83 334 0.0 5.0 0.00 0.00 0.00 100 1012.2
20260508095309 83 296 0.0 4.0 0.00 0.00 0.00 100 1012.2
20260508094809 83 355 0.0 4.0 0.00 0.00 0.00 100 1012.1
20260508094309 83 303 0.0 0.0 0.00 0.00 0.00 100 1012.1
20260508093809 83 303 0.0 3.0 0.00 0.00 0.00 100 1012.0
20260508093309 83 324 0.0 1.0 0.00 0.00 0.00 100 1011.9
20260508092809 83 348 0.0 0.0 0.00 0.00 0.00 100 1011.9
20260508092313 83 348 0.0 2.0 0.00 0.00 0.00 100 1011.8